Waarnemingen

Advertentie
Mijn weer
Europlatform, Nederland (6321): temperatuur & dauwpunt: 19.02.2018 02:00:00 - 25.02.2018 02:00:00 (CET)Europlatform, Nederland (6321): water temperatuur: 19.02.2018 02:00:00 - 25.02.2018 02:00:00 (CET)Europlatform, Nederland (6321): windsnelheid & windstoten: 19.02.2018 02:00:00 - 25.02.2018 02:00:00 (CET)Europlatform, Nederland (6321): windrichting: 19.02.2018 02:00:00 - 25.02.2018 02:00:00 (CET)Europlatform, Nederland (6321): luchtdruk: 19.02.2018 02:00:00 - 25.02.2018 02:00:00 (CET)Europlatform, Nederland (6321): zicht: 19.02.2018 02:00:00 - 25.02.2018 02:00:00 (CET)
Datum & Tijd tt [°C] td [°C] tw [°C] ff [km/u] ff [kn] fx [km/u] fx [kn] dd ppp [hPa] vv [km]
25.02.2018 02:00:00 0,2 -8,0 5,4 50 27 54 29 ONO 1027,7 10
25.02.2018 01:00:00 0,8 -6,9 5,3 54 29 58 31 O 1027,6 10
25.02.2018 00:00:00 1,1 -6,9 5,3 52 28 61 33 O 1027,6 10
24.02.2018 23:00:00 1,4 -6,3 5,4 57 31 65 35 ONO 1027,1 10
24.02.2018 22:00:00 1,8 -5,9 5,3 59 32 65 35 ONO 1026,7 10
24.02.2018 21:00:00 2,3 -4,6 5,4 57 31 65 35 ONO 1026,2 10
24.02.2018 20:00:00 2,9 -3,6 5,4 55 30 61 33 ONO 1025,9 10
24.02.2018 19:00:00 3,1 -3,6 5,4 54 29 61 33 ONO 1025,2 10
24.02.2018 18:00:00 3,5 -2,9 5,4 47 25 58 31 ONO 1024,6 24
24.02.2018 17:00:00 3,1 -3,5 5,4 50 27 54 29 ONO 1024,5 10
24.02.2018 16:00:00 3,1 -4,0 5,4 50 27 54 29 ONO 1024,4 10
24.02.2018 15:00:00 3,4 -4,1 5,4 50 27 50 27 NO 1024,4 10
24.02.2018 14:00:00 3,3 -4,4 5,4 44 24 50 27 ONO 1024,4 10
24.02.2018 13:00:00 2,9 -5,8 5,4 46 25 50 27 ONO 1024,3 10
24.02.2018 12:00:00 2,0 -5,9 5,5 44 24 47 25 ONO 1024,8 10
24.02.2018 11:00:00 1,3 -7,3 5,5 44 24 50 27 ONO 1024,6 10
24.02.2018 10:00:00 0,8 -7,4 5,4 46 25 50 27 ONO 1024,2 10
24.02.2018 09:00:00 0,4 -7,7 5,5 46 25 54 29 O 1023,9 10
24.02.2018 08:00:00 0,2 -7,4 5,5 50 27 54 29 O 1023,3 10
24.02.2018 07:00:00 -0,1 -6,5 5,5 46 25 50 27 O 1022,7 10
24.02.2018 06:00:00 -0,1 -7,1 5,6 42 23 47 25 O 1022,5 10
24.02.2018 05:00:00 -0,1 -7,2 5,6 42 23 47 25 O 1022,3 10
24.02.2018 04:00:00 0,2 -6,0 5,6 44 24 50 27 O 1022,1 10
24.02.2018 03:00:00 0,0 -6,6 5,6 44 24 47 25 O 1022,1 10
24.02.2018 02:00:00 0,4 -6,3 5,6 48 26 50 27 O 1022,0 10
24.02.2018 01:00:00 1,0 -4,8 5,6 48 26 50 27 O 1021,9 10
24.02.2018 00:00:00 0,9 -5,3 5,6 50 27 54 29 O 1021,6 10
23.02.2018 23:00:00 1,5 -4,9 5,6 48 26 54 29 O 1021,7 10
23.02.2018 22:00:00 1,9 -5,3 5,6 46 25 50 27 O 1021,7 10
23.02.2018 21:00:00 2,4 -4,4 5,6 44 24 50 27 ONO 1021,5 10
23.02.2018 20:00:00 2,6 -4,7 5,6 40 21 50 27 ONO 1021,6 27
23.02.2018 19:00:00 2,9 -3,4 5,6 42 23 50 27 ONO 1021,3 10
23.02.2018 18:00:00 2,8 -4,2 5,6 42 23 47 25 ONO 1021,1 10
23.02.2018 17:00:00 2,7 -5,1 5,6 42 23 47 25 ONO 1021,1 10
23.02.2018 16:00:00 2,4 -4,2 5,6 40 21 47 25 NO 1021,2 22
23.02.2018 15:00:00 2,0 -4,6 5,6 42 23 50 27 NO 1021,6 10
23.02.2018 14:00:00 1,6 -4,7 5,6 40 21 47 25 NO 1022,4 17
23.02.2018 13:00:00 1,7 -5,2 5,6 39 21 47 25 ONO 1022,8 10
23.02.2018 12:00:00 1,6 -4,0 5,6 37 20 40 21 ONO 1023,4 10
23.02.2018 11:00:00 1,8 -2,5 5,6 37 20 40 21 ONO 1023,5 10
23.02.2018 10:00:00 2,0 -2,0 5,6 35 19 40 21 ONO 1023,6 10
23.02.2018 09:00:00 2,1 -2,2 5,6 29 16 40 21 ONO 1023,6 10
23.02.2018 08:00:00 2,1 -3,1 5,6 31 17 36 19 ONO 1023,7 10
23.02.2018 07:00:00 2,1 -3,6 5,6 31 17 36 19 ONO 1023,3 10
23.02.2018 06:00:00 1,9 -3,2 5,7 31 17 36 19 ONO 1023,3 10
23.02.2018 05:00:00 2,2 -3,0 5,6 31 17 36 19 ONO 1023,2 10
23.02.2018 04:00:00 2,6 -2,3 5,6 31 17 36 19 ONO 1023,3 10
23.02.2018 03:00:00 2,5 -1,9 5,7 35 19 40 21 ONO 1023,7 10
23.02.2018 02:00:00 2,6 -2,7 5,6 37 20 40 21 ONO 1023,9 10
23.02.2018 01:00:00 2,7 -3,6 5,7 37 20 40 21 ONO 1024,1 10
23.02.2018 00:00:00 2,9 -3,7 5,7 39 21 43 23 O 1024,4 10
22.02.2018 23:00:00 2,8 -2,6 5,7 42 23 47 25 ONO 1024,3 10
22.02.2018 22:00:00 3,1 -1,5 5,7 42 23 47 25 ONO 1024,1 10
22.02.2018 21:00:00 3,5 -2,2 5,7 42 23 47 25 ONO 1023,9 10
22.02.2018 20:00:00 3,5 -1,7 5,7 40 21 50 27 NO 1023,9 16
22.02.2018 19:00:00 3,6 -1,8 5,7 44 24 50 27 NO 1023,8 10
22.02.2018 18:00:00 3,8 -1,6 5,7 42 23 47 25 NO 1023,7 10
22.02.2018 17:00:00 3,9 -2,6 5,6 39 21 43 23 NO 1023,9 10
22.02.2018 16:00:00 3,7 -3,3 5,6 29 16 40 21 NO 1024,0 24
22.02.2018 15:00:00 3,4 -3,9 5,6 34 18 36 19 NO 1024,5 10
22.02.2018 14:00:00 3,1 -4,2 5,7 34 18 36 19 NO 1025,1 10
22.02.2018 13:00:00 2,8 -4,1 5,7 34 18 36 19 ONO 1025,5 10
22.02.2018 12:00:00 2,7 -4,1 5,7 31 17 36 19 ONO 1025,8 10
22.02.2018 11:00:00 2,4 -3,4 5,7 35 19 40 21 O 1025,7 10
22.02.2018 10:00:00 2,2 -3,8 5,7 35 19 40 21 O 1025,7 10
22.02.2018 09:00:00 2,3 -2,9 5,8 35 19 40 21 ONO 1025,5 10
22.02.2018 08:00:00 2,3 -3,4 5,7 39 21 43 23 ONO 1025,1 10
22.02.2018 07:00:00 2,3 -4,2 5,7 39 21 47 25 ONO 1024,8 10
22.02.2018 06:00:00 2,3 -3,4 5,8 37 20 43 23 ONO 1024,8 10
22.02.2018 05:00:00 2,5 -3,9 5,8 35 19 40 21 ONO 1024,6 10
22.02.2018 04:00:00 2,4 -3,6 5,8 32 18 40 21 ONO 1024,9 16
22.02.2018 03:00:00 2,5 -4,0 5,8 35 19 40 21 ONO 1025,3 10
22.02.2018 02:00:00 2,5 -4,2 5,8 35 19 40 21 ONO 1025,4 10
22.02.2018 01:00:00 2,7 -3,6 5,8 31 17 40 21 ONO 1025,7 10
22.02.2018 00:00:00 3,0 -2,9 5,8 31 17 36 19 NO 1025,8 10
21.02.2018 23:00:00 3,3 -2,1 5,8 31 17 32 18 NO 1026,0 10
21.02.2018 22:00:00 3,2 -1,8 5,7 31 17 36 19 NO 1026,2 10
21.02.2018 21:00:00 3,2 -1,5 5,8 35 19 40 21 NO 1026,0 10
21.02.2018 20:00:00 3,4 -0,8 5,8 35 19 36 19 NNO 1025,6 10
21.02.2018 19:00:00 3,7 -0,8 5,8 34 18 36 19 NO 1025,7 10
21.02.2018 18:00:00 3,9 -0,7 5,8 28 15 32 18 NNO 1025,5 8
21.02.2018 17:00:00 4,1 -0,9 5,7 21 11 25 14 N 1025,5 9
21.02.2018 16:00:00 3,9 -1,5 5,7 15 8 18 10 N 1025,6 8
21.02.2018 15:00:00 3,7 -2,0 - 13 7 18 10 NNO 1026,2 8
21.02.2018 14:00:00 3,7 -1,7 5,7 13 7 18 10 NO 1026,8 8
21.02.2018 13:00:00 3,6 -2,2 5,7 15 8 22 12 NO 1027,3 8
21.02.2018 12:00:00 3,5 -1,6 5,7 14 8 22 12 NO 1027,4 8
21.02.2018 11:00:00 3,5 -1,9 5,7 18 10 25 14 NO 1027,5 8
21.02.2018 10:00:00 3,6 -1,8 5,8 24 13 29 16 NO 1027,0 8
21.02.2018 09:00:00 3,6 -1,6 5,8 28 15 32 18 NO 1026,6 8
21.02.2018 08:00:00 3,8 -1,3 5,8 29 16 32 18 NO 1026,3 9
21.02.2018 07:00:00 4,1 -0,8 5,8 28 15 32 18 NO 1026,2 9
21.02.2018 06:00:00 4,1 -1,1 5,8 28 15 29 16 NNO 1026,3 8
21.02.2018 05:00:00 4,2 -0,9 5,8 24 13 25 14 NNO 1026,1 10
21.02.2018 04:00:00 4,2 -0,7 5,8 18 10 22 12 NNO 1025,9 9
21.02.2018 03:00:00 4,4 -1,3 5,8 18 10 29 16 NO 1025,8 9
21.02.2018 02:00:00 4,5 -0,3 5,8 24 13 29 16 NO 1025,4 7
21.02.2018 01:00:00 4,5 -0,3 5,8 28 15 32 18 NO 1025,0 9
21.02.2018 00:00:00 4,5 -0,5 5,8 31 17 40 21 NO 1024,6 8
20.02.2018 23:00:00 4,6 -0,2 5,8 35 19 43 23 NO 1024,1 9
20.02.2018 22:00:00 4,5 0,3 5,8 37 20 40 21 NO 1023,3 8
20.02.2018 21:00:00 4,6 0,1 5,8 31 17 36 19 NO 1023,0 8
20.02.2018 20:00:00 4,6 -0,1 5,8 34 18 36 19 NO 1022,1 8
20.02.2018 19:00:00 4,6 -0,3 5,8 24 13 29 16 NO 1021,1 10
20.02.2018 18:00:00 4,1 -0,7 5,8 13 7 18 10 NO 1020,4 10
20.02.2018 17:00:00 3,5 -0,1 5,8 15 8 22 12 NO 1019,9 10
20.02.2018 16:00:00 3,8 -2,9 5,8 14 8 18 10 NO 1019,9 15
20.02.2018 15:00:00 4,1 -0,5 5,8 5 3 11 6 O 1019,4 8
20.02.2018 14:00:00 4,1 -0,4 5,8 11 6 14 8 OZO 1019,3 8
20.02.2018 13:00:00 4,1 -1,1 5,8 13 7 14 8 OZO 1019,5 10
20.02.2018 12:00:00 3,9 -0,8 5,8 13 7 14 8 ZO 1019,3 8
20.02.2018 11:00:00 4,0 0,2 5,8 15 8 18 10 OZO 1019,2 9
20.02.2018 10:00:00 3,8 0,0 5,8 14 8 18 10 OZO 1019,0 9
20.02.2018 09:00:00 4,1 0,2 5,8 15 8 18 10 OZO 1018,8 8
20.02.2018 08:00:00 4,3 1,7 5,8 15 8 18 10 O 1018,7 9
20.02.2018 07:00:00 4,4 2,3 5,8 15 8 22 12 O 1018,4 7
20.02.2018 06:00:00 4,3 2,4 5,8 16 9 22 12 O 1017,9 5
20.02.2018 05:00:00 4,4 2,9 5,8 15 8 18 10 O 1018,0 5
20.02.2018 04:00:00 4,3 3,1 5,8 11 6 14 8 O 1017,9 4,4
20.02.2018 03:00:00 4,2 3,3 5,8 13 7 18 10 O 1017,8 3,6
20.02.2018 02:00:00 4,3 3,0 5,8 15 8 18 10 OZO 1017,5 5
20.02.2018 01:00:00 4,3 3,1 5,7 15 8 22 12 OZO 1017,4 4,9
20.02.2018 00:00:00 4,1 3,3 5,8 21 11 22 12 OZO 1017,4 4,0
19.02.2018 23:00:00 4,0 3,3 5,8 21 11 22 12 OZO 1017,1 3,0
19.02.2018 22:00:00 4,2 3,4 5,8 18 10 22 12 ZO 1017,0 3,7
19.02.2018 21:00:00 4,4 3,7 5,8 18 10 22 12 ZO 1017,1 5
19.02.2018 20:00:00 4,4 3,8 5,8 21 11 25 14 ZZO 1016,8 3,4
19.02.2018 19:00:00 4,2 3,7 5,8 22 12 25 14 ZZO 1016,6 3,2
19.02.2018 18:00:00 4,1 3,6 5,8 24 13 29 16 ZZO 1016,5 2,5
19.02.2018 17:00:00 4,0 3,5 5,8 22 12 25 14 ZZO 1016,3 2,5
19.02.2018 16:00:00 3,8 3,4 5,8 22 12 29 16 ZZO 1016,6 1,7
19.02.2018 15:00:00 3,7 3,1 5,8 26 14 29 16 Z 1016,8 3,8
19.02.2018 14:00:00 3,6 2,9 5,8 22 12 29 16 ZZO 1017,1 3,8
19.02.2018 13:00:00 3,5 2,6 5,8 26 14 29 16 Z 1017,5 4,6
19.02.2018 12:00:00 3,5 2,6 5,8 28 15 32 18 ZZO 1017,7 4,7
19.02.2018 11:00:00 3,7 2,5 5,8 29 16 32 18 ZZO 1017,9 5
19.02.2018 10:00:00 3,9 2,8 5,8 28 15 32 18 Z 1018,2 5
19.02.2018 09:00:00 4,0 2,7 5,8 29 16 32 18 Z 1018,3 5
19.02.2018 08:00:00 4,2 2,5 5,8 29 16 32 18 Z 1018,5 8
19.02.2018 07:00:00 4,4 2,5 5,8 29 16 32 18 Z 1018,6 9
19.02.2018 06:00:00 4,4 2,0 5,8 31 17 32 18 Z 1018,8 10
19.02.2018 05:00:00 4,8 2,1 5,8 34 18 32 18 Z 1019,2 10
19.02.2018 04:00:00 4,9 2,0 5,8 31 17 32 18 Z 1019,4 10
19.02.2018 03:00:00 5,2 1,9 5,8 34 18 32 18 Z 1020,0 10
19.02.2018 02:00:00 5,5 1,9 5,8 31 17 32 18 Z 1020,7 10

tt = temperatuur
td = dauwpunt
tw = water temperatuur
ff = windsnelheid
fx = windstoten
dd = windrichting
ppp = luchtdruk
vv = zicht

Weerstations in de omgeving